Theta_e
303 307 305 304 302 303 294 298 299 302 300 300 300 301 302 302 303 303 302 303 302 302 303 303 303 303 303 302 303 303 303 302 301 301 300 299 298 297 298 298 298 298 299 298
303 304 303 303 304 304 302 299 299 298 298 299 301 302 303 303 303 303 303 303 303 303 303 303 303 303 302 302 301 302 302 302 301 301 300 299 297 297 297 298 298 298 298 298
305 305 302 298 302 303 304 303 301 301 301 302 303 303 303 303 303 303 302 303 302 303 303 303 303 303 303 302 301 301 302 301 300 300 299 298 296 296 297 298 297 297 297 297
301 304 296 302 303 303 303 303 303 303 302 302 302 301 302 301 301 302 302 302 302 302 303 303 303 303 303 303 302 301 301 301 300 300 299 298 296 296 296 297 296 296 296 297
298 304 304 306 303 302 302 302 303 303 303 302 302 301 301 301 300 300 301 301 301 301 300 300 300 300 301 303 303 302 301 301 300 299 298 297 295 295 296 296 295 296 296 295
301 300 301 305 303 303 302 301 304 303 302 301 300 299 300 299 300 300 299 300 300 300 299 299 299 299 299 300 302 302 302 302 301 299 297 295 295 295 295 295 294 295 295 295
299 301 305 306 302 302 302 302 302 300 300 300 299 298 298 300 299 300 300 300 300 300 299 300 300 299 299 299 300 301 302 302 300 297 295 295 295 295 295 294 295 294 295 294
300 297 303 303 302 302 301 300 300 300 299 299 299 299 299 299 299 299 299 299 299 299 299 299 299 299 299 299 299 300 302 299 297 297 295 295 295 295 294 294 294 294 294 294
302 302 303 303 300 300 299 299 299 298 298 298 298 298 299 299 299 299 298 297 297 298 299 299 299 299 298 298 298 300 302 301 299 296 295 295 294 294 294 294 294 294 294 294
302 305 305 301 300 299 298 298 298 297 297 296 296 296 296 297 297 298 297 297 296 296 297 298 297 298 298 300 302 302 301 299 296 295 295 294 294 294 294 294 293 294 293 293
302 303 301 300 299 298 298 297 297 296 296 296 296 295 295 295 295 294 295 294 294 294 294 294 294 294 294 294 295 297 298 297 296 294 294 294 294 293 293 293 292 293 293 292
301 300 300 298 298 298 297 297 296 296 296 296 295 295 295 294 294 294 294 293 293 293 292 292 292 292 292 293 292 291 292 293 293 293 293 292 292 291 291 291 291 292 292 292
299 298 298 298 297 297 296 297 296 296 295 295 294 294 293 292 292 292 292 291 290 293 292 291 291 291 291 291 291 292 292 291 291 291 291 291 292 292 292 292 291 290 290 290
298 298 297 296 296 297 297 295 295 294 293 292 292 291 290 291 290 290 288 287 288 290 291 291 291 290 290 290 291 290 291 291 290 290 290 290 290 290 290 290 289 290 290 289
297 296 296 297 297 296 295 293 292 292 292 291 290 289 289 290 289 289 288 286 287 288 289 289 290 289 289 289 290 290 290 290 290 290 290 290 290 290 290 289 289 289 289 289
296 296 295 295 294 293 292 292 291 291 291 290 289 288 288 289 288 287 286 285 286 287 287 288 288 288 288 289 289 290 290 290 290 290 290 289 289 289 288 288 288 288 288 288
294 294 294 293 292 292 292 291 291 291 290 289 289 288 288 287 286 285 284 285 286 286 286 287 287 288 289 289 290 290 290 290 290 290 289 289 289 288 288 288 287 287 286 286
293 293 293 293 292 292 292 292 291 291 290 289 288 288 287 285 284 285 285 285 286 286 286 286 288 288 287 288 289 289 289 290 290 289 289 288 288 287 287 286 286 286 285 285
292 292 291 291 291 292 291 291 291 290 289 289 288 288 286 285 285 285 285 285 285 286 286 287 287 285 286 286 286 286 287 288 288 288 288 287 286 285 285 284 284 285 285 284
291 290 291 291 289 289 289 289 289 289 288 288 288 286 285 286 285 285 285 285 286 286 285 284 284 283 284 283 282 282 284 285 285 285 285 284 284 284 283 283 283 283 283 283
290 289 288 288 288 288 287 287 287 287 288 288 286 286 286 286 286 286 286 286 286 284 283 282 282 282 281 281 280 280 281 281 281 281 281 281 281 282 282 282 282 282 282 282
287 287 287 287 287 287 286 287 287 288 288 287 286 286 286 286 286 286 285 285 284 282 282 281 280 280 280 280 279 280 280 280 280 280 280 281 281 281 281 281 281 281 281 280
287 286 287 287 286 286 287 287 287 287 287 287 286 286 286 286 285 285 284 283 283 282 281 280 280 280 279 279 279 279 279 279 279 280 280 280 280 280 279 279 279 279 279 279
286 286 286 286 287 286 286 286 286 287 287 286 286 285 286 285 285 284 282 282 282 281 280 280 279 278 279 279 278 278 279 279 278 278 277 277 278 278 278 278 278 278 278 279
286 286 287 286 286 285 286 286 286 286 286 286 286 285 285 285 284 283 283 282 281 280 279 278 277 277 278 277 278 278 278 277 277 277 277 277 277 277 277 277 278 278 277 276
286 286 286 286 286 286 286 286 286 286 286 286 285 285 284 283 283 283 283 281 279 279 278 277 276 276 276 276 277 277 276 276 275 276 276 276 276 276 277 276 275 275 275 275
286 286 286 286 286 286 286 285 285 285 285 285 285 284 283 283 283 283 280 279 279 278 276 274 274 275 275 276 275 274 274 275 275 274 274 275 275 275 274 275 275 274 273 273
Wind_Speed
4 2 4 5 5 8 5 5 5 2 4 8 10 9 6 1 2 4 5 5 6 9 9 11 12 10 7 7 7 10 8 9 12 15 16 13 14 16 16 17 16 18 19 19
2 6 7 7 11 13 12 7 9 11 16 13 16 8 4 3 3 5 7 7 5 7 13 13 10 7 8 9 11 14 12 11 11 16 14 13 15 16 16 17 17 18 18 19
0 6 6 7 8 12 10 10 10 8 11 8 8 6 4 2 4 6 7 7 8 11 13 9 6 12 15 15 15 16 16 14 13 15 15 15 17 17 18 16 18 18 19 20
2 3 1 6 1 7 5 5 8 6 4 6 6 7 6 10 9 9 10 9 16 21 21 19 20 19 21 20 20 20 18 17 16 17 15 15 18 18 19 17 19 18 19 15
3 2 5 2 3 3 1 4 8 7 8 7 8 6 8 11 13 8 12 19 20 24 26 28 28 29 31 30 28 22 16 15 19 18 17 15 17 19 19 19 19 20 17 16
1 3 5 4 5 6 2 1 6 9 9 10 10 6 4 11 21 24 23 23 25 27 29 31 32 32 32 29 31 25 25 26 24 21 18 15 17 21 21 18 19 18 19 15
2 2 6 3 6 3 3 5 7 10 7 7 4 4 5 16 18 22 24 26 30 31 29 30 28 30 32 32 29 31 35 26 24 18 13 14 18 22 17 18 17 21 17 17
2 2 6 2 4 3 3 6 8 9 10 10 9 11 13 18 21 25 25 25 27 27 26 27 29 31 29 28 35 29 22 19 16 14 18 16 20 21 18 17 19 18 19 19
6 5 6 3 12 6 7 7 8 8 7 9 9 11 14 14 22 25 28 29 34 35 32 33 33 31 30 32 33 26 22 19 18 20 16 16 19 20 17 19 17 19 20 20
5 2 4 13 10 11 11 9 6 10 7 10 8 11 13 18 21 21 24 26 28 30 29 28 33 33 34 35 19 11 12 13 15 13 12 18 18 17 17 14 19 19 21 22
3 3 14 11 8 8 9 10 9 11 7 6 6 6 9 11 15 18 19 21 23 23 24 26 27 29 31 31 31 18 11 16 16 17 22 13 14 12 15 17 19 21 19 24
2 3 7 4 7 10 6 4 3 2 4 4 6 5 8 9 13 15 16 18 21 23 24 26 25 24 23 24 25 27 21 17 17 16 15 13 15 18 17 21 22 21 19 22
4 7 7 6 11 9 4 7 8 6 8 8 14 16 16 16 19 22 21 24 27 22 24 26 26 27 25 22 23 20 20 23 23 20 18 19 22 20 20 21 25 30 28 24
9 5 6 7 3 8 10 12 14 15 16 16 17 17 18 18 18 19 22 30 28 26 29 29 28 31 33 29 25 22 21 19 18 20 19 19 19 22 23 22 23 28 27 28
8 9 5 1 5 6 12 15 11 10 14 14 16 18 21 21 20 24 28 31 30 30 30 30 29 34 35 32 29 26 21 21 20 16 17 18 20 20 23 23 24 25 28 27
6 8 8 6 6 10 12 11 5 8 13 13 16 20 24 23 24 28 30 30 27 27 31 32 33 37 35 33 29 27 24 24 23 23 23 23 23 21 21 21 22 23 23 24
5 4 5 4 4 4 5 8 9 10 10 12 16 22 23 24 27 28 30 32 33 33 35 33 35 39 37 35 31 29 29 26 23 25 23 21 19 21 22 21 21 22 26 27
9 10 12 11 8 8 10 9 14 15 16 20 24 25 24 26 25 27 29 33 33 32 31 32 31 32 37 32 31 30 30 32 28 24 21 19 21 22 22 23 23 23 26 27
17 15 16 16 18 14 14 14 14 17 17 23 23 22 26 29 27 29 31 29 29 28 32 27 30 33 28 27 26 28 27 26 22 15 14 17 22 23 23 24 24 25 24 25
13 14 15 15 19 19 19 20 21 22 23 21 23 26 26 30 31 31 29 28 25 24 28 32 31 26 25 28 32 28 25 24 23 21 19 20 21 21 21 22 24 24 25 25
9 13 17 19 20 20 21 25 25 24 26 24 24 26 28 32 31 28 25 24 21 30 28 29 26 25 27 29 32 27 24 24 23 22 22 21 23 22 22 21 22 24 26 25
14 17 19 22 24 28 31 30 29 27 28 25 25 27 29 27 22 23 21 18 26 30 28 27 29 29 30 31 29 26 24 24 24 23 22 22 22 23 23 24 24 24 24 26
13 19 22 24 29 28 27 26 24 19 21 27 24 22 22 24 21 18 19 26 28 29 29 32 30 30 32 31 29 27 27 26 26 24 24 23 23 23 24 25 26 27 27 28
19 19 25 28 25 24 23 27 27 24 23 21 18 20 21 24 24 22 22 25 26 27 30 28 30 33 29 29 30 29 26 22 24 25 25 26 26 26 25 26 27 27 28 29
23 24 21 22 22 21 25 27 27 26 24 23 19 21 19 17 19 27 25 23 24 27 26 33 31 30 30 30 29 26 26 28 27 28 26 26 26 26 27 28 27 27 30 31
22 22 24 24 25 27 27 27 23 26 27 21 18 23 21 22 23 25 22 22 25 25 28 31 31 30 30 30 29 27 26 27 29 28 27 27 28 29 26 27 31 30 30 32
22 23 24 24 24 25 26 26 26 26 22 19 17 21 21 22 22 19 23 23 23 23 29 33 29 29 30 27 25 30 31 28 26 29 31 29 26 29 30 30 30 31 34 35
Wind_Direction
218 157 153 181 176 175 176 201 163 250 313 302 306 287 268 165 289 308 271 269 257 256 250 235 238 241 236 277 266 273 249 290 296 304 303 307 317 322 321 322 322 331 329 339
300 223 237 249 210 194 204 220 254 267 280 267 265 259 330 302 20 323 293 273 267 297 298 272 269 234 257 262 276 266 248 266 281 291 286 296 309 314 315 315 320 324 326 332
206 47 30 321 226 211 197 195 198 208 234 248 270 274 275 261 283 276 284 300 275 267 282 273 271 279 270 260 263 260 259 255 271 265 269 282 299 304 308 308 319 321 323 325
177 56 24 240 146 137 154 195 196 202 266 14 23 1 20 43 38 15 358 354 346 346 337 322 309 289 289 273 261 255 250 254 264 252 250 272 292 295 300 306 312 313 319 317
125 212 275 344 31 65 80 17 45 62 35 27 15 35 341 20 5 342 332 333 330 328 324 322 321 318 307 277 262 246 240 261 271 241 249 268 282 288 292 299 305 306 308 310
101 138 216 218 135 71 47 144 20 43 34 23 23 23 308 339 336 335 331 330 326 324 319 315 314 310 305 300 286 241 252 262 257 245 252 267 278 282 285 287 300 300 303 304
173 214 288 253 107 88 126 231 48 51 41 29 27 235 262 323 324 320 319 318 314 309 303 303 310 314 303 299 281 278 264 245 234 232 247 264 276 277 277 291 287 303 292 305
143 109 264 279 124 129 189 54 59 43 30 21 3 352 343 335 330 325 317 317 317 311 308 315 316 310 303 302 302 296 243 213 212 246 253 265 267 270 280 283 293 291 296 294
166 208 224 70 105 99 78 73 54 49 20 11 355 348 352 355 5 13 4 3 0 1 357 350 342 333 321 314 306 280 244 242 249 239 243 261 266 275 281 289 282 291 292 291
98 261 78 82 63 67 68 62 41 43 31 29 10 5 7 6 358 1 357 357 356 358 357 357 357 2 1 351 323 286 274 263 253 231 241 259 264 278 286 290 297 291 291 292
180 125 96 61 63 74 64 40 58 29 31 31 23 2 1 1 360 355 355 355 355 349 347 347 351 352 357 359 348 339 323 299 280 280 275 274 276 287 300 298 303 302 300 304
151 94 100 84 80 67 65 12 46 354 316 357 14 337 345 341 346 344 348 347 346 342 341 338 340 343 344 346 340 354 358 348 333 323 309 318 312 309 304 299 300 297 296 300
101 69 78 76 65 42 1 304 332 324 355 14 13 9 7 354 350 350 354 346 335 325 324 324 323 326 334 327 327 326 327 328 331 331 331 329 324 323 323 315 306 306 308 307
74 82 50 50 20 329 329 356 5 16 14 11 6 11 360 351 349 345 339 330 323 321 317 314 311 309 318 320 317 316 309 301 298 295 302 302 304 307 311 304 303 306 306 305
71 72 108 74 302 337 3 18 18 6 1 359 9 2 351 341 334 326 320 317 314 313 310 308 307 304 310 313 306 302 295 292 293 288 296 304 307 305 300 295 293 294 300 304
82 58 44 17 19 18 7 358 7 347 354 10 360 345 329 319 317 316 313 313 316 312 313 312 310 307 308 309 305 298 291 288 285 286 289 294 296 292 293 296 295 292 290 294
66 34 32 14 352 324 318 320 334 331 339 349 334 325 316 317 318 316 317 321 319 313 310 310 307 319 320 311 301 293 289 278 276 285 283 286 288 293 295 293 294 296 294 296
45 30 17 6 356 339 325 343 357 352 339 326 324 320 320 323 313 312 315 315 310 310 312 315 317 320 323 320 316 314 298 287 268 265 274 286 293 297 295 296 294 295 298 299
23 11 357 346 331 346 350 339 330 321 314 316 314 313 315 315 312 310 311 310 314 313 312 324 329 333 333 337 339 340 333 306 289 283 296 303 302 299 297 294 293 294 299 304
353 337 328 334 339 333 325 324 320 316 313 309 308 312 313 315 314 307 308 302 308 320 340 337 334 337 330 336 339 338 330 324 321 317 314 310 308 305 305 304 303 303 303 301
345 338 336 336 332 333 329 324 318 310 305 304 309 310 311 310 312 319 318 311 321 338 337 334 336 334 331 337 336 331 329 327 326 324 319 313 309 305 302 303 305 303 299 298
345 338 335 329 323 320 324 320 315 316 312 308 312 311 308 306 318 322 326 318 326 334 332 332 331 333 332 333 332 327 326 325 321 318 315 312 312 311 308 306 304 304 305 306
337 327 320 319 316 312 313 315 311 309 307 302 302 309 311 312 314 312 315 322 326 330 329 330 334 332 331 331 333 330 328 324 321 318 318 317 317 314 312 310 309 307 305 304
308 308 313 314 315 309 308 317 316 304 298 299 299 308 312 311 307 315 321 323 326 330 328 332 331 330 332 332 330 329 327 330 327 320 316 313 311 309 308 308 307 307 305 304
309 312 316 313 311 307 308 310 309 304 297 295 299 311 314 309 299 312 318 321 327 329 329 331 335 334 331 331 330 326 322 325 325 321 314 311 308 309 307 303 303 309 310 306
322 316 317 318 316 315 313 311 303 302 304 300 302 312 316 318 317 313 314 324 329 329 329 333 332 331 329 328 328 328 329 324 320 316 316 316 313 307 307 312 310 308 307 307
321 319 318 316 318 318 316 313 310 302 300 290 293 308 319 322 324 322 330 329 330 329 330 334 333 331 329 327 330 326 324 325 322 318 317 316 317 315 312 311 311 311 309 307